Regional Weather Roundup
Issued by NWS

Home | Current Version | Previous Version | Text Only | Print | Product List | Glossary On
Versions: 1 2 3 4 5 6 7 8 9 10 11 12 13 14 15 16 17 18 19 20 21 22 23 24 25 26 27 28 29 30 31 32 33 34 35 36 37 38 39 40 41 42 43 44 45 46 47 48 49 50
000
ASUS43 KTOP 291510
RWRKS

STATE WEATHER ROUNDUP
NATIONAL WEATHER SERVICE DODGE CITY KS
 FOR NATIONAL WEATHER SERVICE GOODLAND KS
1000 AM CDT WED JUL 29 2015

NOTE:  "FAIR" INDICATES FEW OR NO CLOUDS BELOW 12,000 FEET WITH NO
SIGNIFICANT WEATHER AND/OR OBSTRUCTIONS TO VISIBILITY.

KSZ001>006-013>018-027>032-041>047-291600-
...NORTHWEST KANSAS...

CITY           SKY/WX    TMP DP  RH WIND       PRES   REMARKS
$$

KSZ061>065-074>080-084>089-291600-
...SOUTHWEST KANSAS...

CITY           SKY/WX    TMP DP  RH WIND       PRES   REMARKS
$$

KSZ066>073-081>083-090>101-291600-
...SOUTHEAST KANSAS...

CITY           SKY/WX    TMP DP  RH WIND       PRES   REMARKS
$$

KSZ007>012-019>026-033>040-048>060-102>105-291600-
...NORTHEAST KANSAS...

CITY           SKY/WX    TMP DP  RH WIND       PRES   REMARKS
$$


USA.gov is the U.S. government's official web portal to all federal, state and local government web resources and services.